SCP
1 1 1 1 1 1 1 0 0 0 0 0 0 0 0 0 0 0 0 0 0 0 0 0 0 0 0 0 0 0 0 0 0 0 0 0 0 0 0 0 0 0 0
1 1 1 1 1 1 0 0 0 0 0 0 0 0 0 0 0 0 0 0 0 0 0 0 0 0 0 0 0 0 0 0 0 0 0 0 0 0 0 0 0 0 0
1 1 1 1 1 0 0 -0 -0 0 0 0 0 0 0 0 0 0 0 0 0 0 0 0 0 0 0 0 0 0 0 0 0 0 0 0 0 0 0 0 0 0 0
1 1 1 1 0 0 0 -0 -0 0 0 0 0 0 0 0 0 0 0 0 0 0 0 0 0 0 0 0 0 0 0 0 0 0 0 0 0 0 0 0 0 0 0
1 1 0 0 0 0 0 0 0 0 0 0 0 0 0 0 0 0 0 0 0 0 0 0 0 0 0 0 0 0 0 0 0 0 0 0 0 0 0 0 0 0 0
1 0 0 0 0 0 0 0 0 0 0 0 0 0 0 0 0 0 0 0 0 0 0 0 0 0 0 0 0 0 0 0 0 0 0 0 0 0 0 0 0 0 0
0 0 0 0 0 0 0 0 0 0 0 0 0 0 0 0 0 0 0 0 0 0 0 0 0 0 0 0 0 0 0 0 0 0 0 0 0 0 0 0 0 0 0
0 0 0 0 0 0 0 0 0 0 0 0 0 0 0 0 0 0 0 0 0 0 0 0 0 0 0 0 0 0 0 0 0 0 0 0 0 0 0 0 0 0 0
0 0 0 0 0 0 0 0 0 0 0 0 0 0 0 0 0 0 0 0 0 0 0 0 0 0 0 0 0 0 0 0 0 0 0 0 0 0 0 0 0 0 0
0 0 0 0 0 0 0 0 0 0 0 0 0 0 0 0 0 0 0 0 0 0 0 0 0 0 0 0 0 0 0 0 0 0 0 0 0 0 0 0 0 0 0
0 0 0 0 0 0 0 0 0 0 0 0 0 0 0 0 0 0 0 0 0 0 0 0 0 0 0 0 0 0 0 0 0 0 0 0 0 0 0 0 0 0 0
0 0 0 0 0 0 0 0 0 0 0 0 0 0 0 0 0 0 0 0 0 0 0 0 0 0 0 0 0 0 0 0 0 0 0 0 0 0 0 0 0 0 0
0 0 0 0 0 0 0 0 0 0 0 0 0 0 0 0 0 0 0 0 0 0 0 0 0 0 0 0 0 0 0 0 0 0 0 0 0 0 0 0 0 0 0
0 0 0 0 0 0 0 0 0 0 0 0 0 0 0 0 0 0 0 0 0 0 0 0 0 0 0 0 0 0 0 0 0 0 0 0 0 0 0 0 0 0 0
0 0 0 0 0 0 0 0 0 0 0 0 0 0 0 0 0 0 0 0 0 0 0 0 0 0 0 0 0 0 0 0 0 0 0 0 0 0 0 0 0 0 0
0 0 0 0 0 0 0 0 0 0 0 0 0 0 0 0 0 0 0 0 0 0 0 0 0 0 0 0 0 0 0 0 0 0 0 0 0 0 0 0 0 0 0
0 0 0 0 0 0 0 0 0 0 0 0 0 0 0 0 0 0 0 0 0 0 0 0 0 0 0 0 0 0 0 0 0 0 0 0 0 0 0 0 0 0 0
0 0 0 0 0 0 0 0 0 0 0 0 0 0 0 0 0 0 0 0 0 0 0 0 0 0 0 0 0 0 0 0 0 0 0 0 0 0 0 0 0 0 0
0 0 0 0 0 0 0 0 0 0 0 0 0 0 0 0 0 0 0 0 0 0 0 0 0 0 0 0 0 0 0 0 0 0 0 0 0 0 0 0 0 0 0
0 0 0 0 0 0 0 0 0 0 0 0 0 0 0 0 0 0 0 0 0 0 0 0 0 0 0 0 0 0 0 0 0 0 0 0 0 0 0 0 0 0 0
0 0 0 0 0 0 0 0 0 0 0 0 0 0 0 0 0 0 0 0 0 0 0 0 0 0 0 0 0 0 0 0 0 0 0 0 0 0 0 0 0 0 0
0 0 0 0 0 0 0 0 0 0 0 0 0 0 0 0 0 0 0 0 0 0 0 0 0 0 0 0 0 0 0 0 0 0 0 0 0 0 0 0 0 0 0
0 0 0 0 0 0 0 0 0 0 0 0 0 0 0 0 0 0 0 0 0 0 0 0 0 0 0 0 0 0 0 0 0 0 0 0 0 0 0 0 0 0 0
0 0 0 0 0 0 0 0 0 0 0 0 0 0 0 0 0 0 0 0 0 0 0 0 0 0 0 0 0 0 0 0 0 0 0 0 0 0 0 0 0 0 0
0 0 0 0 0 0 0 0 0 0 0 0 0 0 0 0 0 0 0 0 0 0 0 0 0 0 0 0 0 0 0 0 0 0 0 0 0 0 0 0 0 0 0
0 0 0 0 0 0 0 0 0 0 0 0 0 0 0 0 0 0 0 0 0 0 0 0 0 0 0 0 0 0 0 0 0 0 0 0 0 0 0 0 0 0 0
Wind_Speed
4 3 3 2 2 2 1 1 1 1 1 2 2 2 3 3 2 2 2 2 1 1 1 0 1 1 1 1 0 0 0 1 2 1 1 1 1 1 2 1 1 1 0
4 4 3 3 3 3 2 1 1 1 2 2 2 3 3 3 3 3 3 3 2 2 2 2 2 1 1 1 1 1 0 1 2 1 1 1 1 1 2 2 2 2 1
4 5 4 3 3 3 3 2 2 2 2 2 3 3 3 3 3 3 3 4 4 4 4 3 3 3 3 2 2 2 1 2 1 2 0 1 1 2 2 3 3 2 3
5 5 4 4 4 4 3 3 2 2 3 3 3 3 3 3 4 4 5 5 5 5 5 4 4 4 4 3 3 3 2 3 2 2 2 1 1 2 2 2 2 2 3
6 5 4 4 4 4 4 3 3 3 4 4 4 4 4 4 4 5 5 6 5 5 5 5 6 8 9 6 4 3 4 3 3 3 2 2 3 2 2 1 1 1 2
6 5 5 5 5 4 4 4 4 4 4 5 5 5 5 5 8 9 7 6 5 5 5 5 6 7 10 11 12 10 7 4 3 3 2 2 2 1 1 2 1 2 2
6 6 5 5 5 5 5 5 5 4 5 6 6 6 6 7 10 11 11 7 6 5 5 5 5 7 7 6 8 11 11 11 7 3 3 2 1 1 1 2 2 2 1
6 5 5 5 6 5 5 5 5 5 6 6 6 6 6 7 10 11 11 8 7 6 6 5 5 5 6 6 6 7 7 7 7 5 3 2 2 1 2 1 2 2 2
6 5 5 6 6 6 6 5 5 6 6 5 5 6 7 6 8 9 8 6 6 6 6 7 6 6 8 8 7 6 6 5 7 9 7 6 7 6 4 3 3 3 2
6 5 5 5 6 6 6 5 5 5 5 5 6 6 6 5 8 9 7 4 5 5 5 6 9 8 9 8 6 5 5 4 4 5 7 8 6 7 7 4 2 3 2
6 6 6 5 5 6 5 5 5 5 5 6 6 5 5 5 6 8 8 4 4 4 4 4 4 9 9 9 7 5 4 3 4 4 4 5 5 5 5 4 3 2 2
7 7 6 5 5 5 5 5 5 5 6 5 5 5 4 4 6 7 8 7 6 5 3 2 3 8 9 9 7 7 8 6 4 4 4 4 4 4 3 4 4 3 2
8 7 6 6 5 4 5 5 4 4 4 4 4 4 3 3 4 7 8 8 8 5 3 5 7 8 8 7 9 9 7 5 4 4 3 3 2 2 3 3 5 4 5
8 7 6 7 6 5 4 3 3 3 4 4 4 4 3 3 3 3 3 4 6 5 4 5 7 9 8 7 6 6 5 4 3 3 2 2 3 3 4 3 3 3 4
8 7 6 6 6 5 5 4 3 1 2 5 4 4 5 3 1 2 3 2 2 2 3 4 4 4 5 4 4 4 4 5 4 3 3 3 3 3 3 3 2 3 3
8 6 5 5 4 5 5 5 9 6 6 6 6 6 3 4 5 6 6 6 6 6 5 4 3 3 3 3 3 4 4 4 3 3 3 3 3 2 3 3 3 3 2
8 7 5 5 5 4 4 5 4 5 9 9 7 8 7 7 7 7 7 7 6 7 5 3 2 2 2 2 2 2 2 2 2 3 3 3 2 3 2 3 3 3 2
7 7 7 5 5 4 4 4 4 5 4 3 4 5 6 7 7 7 7 7 5 4 3 2 2 2 2 2 2 2 2 3 3 3 3 3 3 2 3 2 2 2 2
6 5 5 5 5 4 4 4 4 4 4 3 2 2 3 5 6 6 6 4 4 3 2 2 2 2 2 2 2 2 3 3 3 3 3 3 3 2 2 2 2 3 2
5 8 7 6 5 5 5 4 4 4 4 3 2 2 1 3 3 3 3 3 3 3 3 3 2 2 3 3 3 3 3 3 3 3 3 3 3 2 2 2 2 2 2
4 6 8 6 5 5 5 4 4 4 4 3 2 2 5 4 3 3 3 2 3 3 3 3 2 2 2 3 3 3 4 3 2 3 3 3 3 2 2 2 2 2 2
4 4 4 5 4 4 5 5 4 4 4 4 3 3 6 4 3 3 3 2 2 2 3 3 3 2 2 2 2 3 2 2 2 2 2 2 2 3 3 2 2 2 2
4 5 4 4 4 6 6 4 4 4 4 4 4 4 3 3 3 3 3 2 2 2 2 3 3 2 2 2 2 2 2 1 0 1 1 2 2 2 2 2 2 3 3
4 5 5 4 4 5 5 4 4 4 4 4 4 4 4 3 3 3 3 3 3 3 3 3 3 4 4 3 2 1 1 0 0 0 1 1 1 2 2 2 2 3 2
4 5 5 5 5 5 4 4 4 4 4 4 4 4 3 3 3 3 3 3 3 3 3 3 2 3 5 4 3 1 1 1 1 1 1 1 1 2 2 2 2 3 2
4 5 4 4 4 4 4 4 4 5 4 4 4 4 4 4 4 3 3 3 3 3 2 2 3 4 4 3 3 2 1 1 1 2 1 1 1 2 2 2 3 3 3
Wind_Direction
160 161 153 156 153 148 143 161 126 61 51 46 36 43 46 49 54 69 71 86 105 64 14 0 308 316 348 339 338 135 150 165 206 266 318 329 30 30 24 40 77 91 108
150 140 132 120 114 110 103 97 91 70 55 58 59 58 50 50 57 65 65 60 70 65 45 43 22 38 41 31 56 68 90 141 165 206 343 358 6 11 34 42 50 62 60
126 121 115 110 108 103 89 85 89 83 68 67 73 74 59 56 66 64 68 64 63 60 56 52 40 53 46 40 52 53 51 61 92 129 61 10 12 18 33 45 50 41 59
117 116 115 117 113 108 99 87 85 88 84 80 75 75 74 69 68 68 69 70 65 58 51 47 46 54 52 46 51 46 60 67 71 85 66 34 29 17 47 48 41 34 42
114 112 114 111 104 97 88 78 73 75 79 79 72 66 67 71 67 72 74 75 68 59 50 47 54 61 59 54 56 47 57 64 66 69 59 47 33 28 21 11 63 43 42
115 115 109 103 97 91 87 80 76 71 72 75 70 77 72 68 67 73 83 75 68 61 54 48 52 50 57 58 61 60 63 74 78 75 62 62 30 14 14 48 67 62 37
113 111 107 106 102 97 95 85 78 73 73 73 71 73 75 72 74 75 76 79 70 59 52 47 52 49 51 55 55 53 50 51 61 95 85 62 36 358 52 60 66 76 74
116 114 110 108 105 99 96 92 85 80 80 79 74 74 75 73 77 79 77 73 68 57 52 52 54 45 50 59 63 58 49 42 45 56 73 59 57 44 81 105 116 82 46
121 118 116 118 116 110 105 100 93 91 84 78 77 76 77 65 72 83 84 80 72 59 53 49 52 57 52 62 66 61 48 34 43 53 56 55 53 55 69 76 67 77 47
125 119 114 117 118 117 115 106 95 94 94 89 79 74 80 74 69 79 84 87 80 67 52 43 48 59 57 60 64 65 55 25 26 35 38 34 36 37 42 68 104 102 91
118 112 109 109 111 114 109 105 106 101 96 88 84 71 65 66 67 74 79 86 92 82 65 45 37 52 57 57 60 62 60 60 49 52 45 32 26 26 25 31 53 103 106
117 114 109 104 108 109 107 107 109 111 103 94 89 75 52 48 60 72 77 80 90 94 82 56 47 54 54 51 52 54 59 62 57 54 46 31 24 16 9 18 32 46 76
116 113 107 95 84 92 107 114 115 114 112 108 103 97 72 47 51 66 76 78 80 82 76 70 61 57 51 46 48 54 55 57 57 57 48 23 358 355 13 21 22 29 30
117 113 107 99 84 69 70 81 101 112 120 120 121 117 105 75 55 50 61 71 71 69 61 54 54 56 54 47 41 40 44 55 71 66 38 10 12 23 24 24 29 24 31
120 116 108 102 101 84 69 54 72 77 155 146 147 144 136 127 155 124 113 91 88 88 75 53 48 45 44 38 35 33 34 39 44 36 39 31 25 25 14 14 33 40 44
129 127 123 119 115 114 110 80 49 57 73 102 128 130 113 119 122 108 102 102 96 95 83 70 62 62 63 59 53 39 32 32 31 41 43 38 32 26 13 9 26 43 39
140 141 135 132 133 132 129 124 105 56 56 66 93 109 113 117 109 102 101 93 86 92 85 82 81 81 74 70 66 59 38 20 32 44 44 33 30 28 27 18 17 24 19
140 144 143 144 145 141 135 129 128 129 111 62 50 86 106 107 105 103 103 89 68 61 82 92 91 88 84 79 72 58 42 34 36 34 31 26 28 34 30 21 20 27 17
140 143 143 143 143 139 136 129 123 123 121 116 89 55 81 94 88 88 92 93 102 89 84 86 89 93 89 84 74 62 57 48 41 37 30 25 21 35 34 23 20 21 28
138 140 139 138 138 139 140 139 137 136 134 134 140 147 117 95 87 77 76 95 101 100 97 91 81 84 89 85 80 72 60 48 40 35 21 17 16 25 25 20 21 18 356
137 140 136 131 136 144 147 146 146 145 147 150 163 158 142 125 125 118 109 107 115 120 117 104 95 93 89 87 85 79 73 53 36 28 19 12 17 16 2 7 11 12 359
136 138 141 142 141 141 140 139 140 142 146 145 135 126 132 117 118 117 117 117 117 120 124 118 109 106 113 114 112 102 87 60 26 14 10 10 14 11 7 7 5 357 355
129 128 128 130 131 134 130 128 132 136 137 138 132 127 128 124 124 125 127 123 116 112 109 111 112 104 92 95 105 117 118 117 291 320 12 11 8 3 3 359 351 347 341
136 137 136 134 131 131 132 132 133 136 137 136 134 135 137 136 135 134 131 124 120 119 120 119 125 131 130 118 105 99 111 154 230 343 34 37 1 347 348 344 335 330 325
135 136 138 139 135 133 132 135 140 143 144 142 140 140 139 136 135 136 134 127 126 127 130 128 128 131 136 137 140 145 140 77 40 15 21 36 6 348 343 333 328 328 322
132 136 135 132 132 134 135 139 144 144 144 143 144 146 146 144 145 147 145 140 137 134 136 141 146 149 151 155 163 164 154 34 8 8 17 17 357 338 337 326 323 322 321